Dublin, Ireland

5:20 AM IST on August 26, 2016 (GMT +0100)
Dublin International

Weather History for EIDW - October, 2012

Change the Weather History Date:

Monday, October 15, 2012

  Actual Average Record
Temperature  
Mean Temperature 44 °F -  
Max Temperature 49 °F 54 °F 60 °F (2005)
Min Temperature 40 °F 43 °F 31 °F (2015)
Degree Days  
Heating Degree Days 20    
Moisture  
Dew Point 43 °F    
Average Humidity 96    
Maximum Humidity 100    
Minimum Humidity 82    
Precipitation  
Precipitation 0.01 in 0.09 in - ()
Sea Level Pressure  
Sea Level Pressure 29.49 in    
Wind  
Wind Speed 7 mph ()    
Max Wind Speed 12 mph    
Max Gust Speed -    
Visibility 4.5 miles    
Events Fog , Rain    
Averages and records for this station are not official NWS values.
T = Trace of Precipitation, MM = Missing Value Source: Averaged Metar Reports

Daily Weather History Graph

Daily Weather History Graph

Search for Another Location

Airport or City:

Trip Planner

Search our weather history database for the weather conditions in past years. The results will help you decide how hot, cold, wet, or windy it might be!

Date:

Astronomy

Oct. 15, 2012 Rise Set
Actual Time 7:52 AM IST 6:28 PM IST
Civil Twilight 7:17 AM IST 7:03 PM IST
Nautical Twilight 6:37 AM IST 7:43 PM IST
Astronomical Twilight 5:56 AM IST 8:24 PM IST
Moon 7:52 AM IST (10/15) 6:08 PM IST (10/15)
Length of Visible Light 11h 45m
Length of Day
10h 35m
Waning Crescent, 0% of the Moon is Illuminated
Oct 15
Waning Crescent
Oct 15
New
Oct 22
First Quarter
Oct 29
Full
Nov 7
Last Quarter

Hourly Weather History & Observations

Time (IST) Temp. Windchill Dew Point Humidity Pressure Visibility Wind Dir Wind Speed Gust Speed Precip Events Conditions
12:00 AM 42.8 °F 38.6 °F 42.8 °F 100% 29.62 in 6.2 mi WNW 6.9 mph - N/A   Scattered Clouds
12:30 AM 41.0 °F 36.4 °F 41.0 °F 100% 29.62 in 5.6 mi NW 6.9 mph - N/A   Partly Cloudy
1:00 AM 43 °F - 43 °F 99% 29.65 in 4 mi WNW 6.7 mph - -   Mist
1:00 AM 42.8 °F 38.6 °F 42.8 °F 100% 29.62 in 4.3 mi WNW 6.9 mph - N/A   Scattered Clouds
1:30 AM 42.8 °F 38.0 °F 42.8 °F 100% 29.62 in 4.3 mi WNW 8.1 mph - N/A   Scattered Clouds
2:00 AM 42.8 °F 37.5 °F 42.8 °F 100% 29.62 in 4.3 mi West 9.2 mph - N/A   Mostly Cloudy
2:30 AM 42.8 °F 38.0 °F 42.8 °F 100% 29.62 in 2.8 mi West 8.1 mph - N/A   Mostly Cloudy
3:00 AM 42.8 °F 38.6 °F 42.8 °F 100% 29.62 in 2.8 mi West 6.9 mph - N/A   Mostly Cloudy
3:30 AM 42.8 °F 38.6 °F 42.8 °F 100% 29.62 in 2.8 mi West 6.9 mph - N/A   Mostly Cloudy
4:00 AM 42.8 °F 38.6 °F 42.8 °F 100% 29.59 in 3.1 mi West 6.9 mph - N/A   Mostly Cloudy
4:30 AM 42.8 °F 38.0 °F 42.8 °F 100% 29.59 in 3.7 mi WNW 8.1 mph - N/A   Mostly Cloudy
5:00 AM 42.8 °F 38.6 °F 42.8 °F 100% 29.59 in 3.7 mi NW 6.9 mph - N/A   Scattered Clouds
5:30 AM 41.0 °F 34.7 °F 41.0 °F 100% 29.59 in 3.7 mi West 10.4 mph - N/A   Scattered Clouds
6:00 AM 41.0 °F 35.2 °F 41.0 °F 100% 29.59 in 3.7 mi West 9.2 mph - N/A   Partly Cloudy
6:30 AM 41.0 °F 34.7 °F 41.0 °F 100% 29.59 in 3.7 mi West 10.4 mph - N/A   Scattered Clouds
7:00 AM 41 °F - 41 °F 100% 29.60 in 3 mi West 11.2 mph - -   Mist
7:00 AM 41.0 °F 34.7 °F 41.0 °F 100% 29.59 in 2.8 mi West 10.4 mph - N/A   Mostly Cloudy
7:30 AM 41.0 °F 34.7 °F 41.0 °F 100% 29.56 in 1.2 mi West 10.4 mph - N/A   Mostly Cloudy
8:00 AM 41.0 °F 34.7 °F 41.0 °F 100% 29.56 in 0.6 mi West 10.4 mph - N/A Fog Fog
8:30 AM 41.0 °F 34.3 °F 41.0 °F 100% 29.56 in 0.6 mi West 11.5 mph - N/A Fog Fog
9:00 AM 41.0 °F 35.2 °F 41.0 °F 100% 29.56 in 0.3 mi West 9.2 mph - N/A Fog Fog
9:30 AM 41.0 °F 35.2 °F 41.0 °F 100% 29.56 in 0.2 mi West 9.2 mph - N/A Fog Fog
10:00 AM 41.0 °F 35.2 °F 41.0 °F 100% 29.56 in 0.3 mi West 9.2 mph - N/A Fog Fog
10:30 AM 41.0 °F 36.4 °F 41.0 °F 100% 29.56 in 0.3 mi WNW 6.9 mph - N/A Fog Fog
11:00 AM 42.8 °F 37.5 °F 42.8 °F 100% 29.56 in 0.3 mi WSW 9.2 mph - N/A Fog Fog
11:30 AM 42.8 °F 37.0 °F 42.8 °F 100% 29.53 in 0.3 mi West 10.4 mph - N/A Fog Fog
12:00 PM 42.8 °F 37.0 °F 42.8 °F 100% 29.53 in 0.7 mi West 10.4 mph - N/A   Mostly Cloudy
12:30 PM 44.6 °F 39.7 °F 42.8 °F 93% 29.53 in 3.7 mi West 9.2 mph - N/A   Mostly Cloudy
1:00 PM 47 °F - 46 °F 92% 29.52 in 16 mi West 8.9 mph - - Fog Light Fog
1:00 PM 46.4 °F 41.9 °F 46.4 °F 100% 29.50 in 6.2 mi West 9.2 mph - N/A   Scattered Clouds
1:30 PM 48.2 °F - 46.4 °F 93% 29.50 in 6.2 mi WNW 6.9 mph - N/A   Mostly Cloudy
2:00 PM 50.0 °F - 44.6 °F 82% 29.50 in 6.2 mi West 6.9 mph - N/A   Mostly Cloudy
2:30 PM 50.0 °F - 44.6 °F 82% 29.47 in 6.2 mi West 6.9 mph - N/A   Mostly Cloudy
3:00 PM 48.2 °F - 42.8 °F 82% 29.47 in 6.2 mi West 8.1 mph - N/A   Mostly Cloudy
3:30 PM 48.2 °F - 42.8 °F 82% 29.47 in 6.2 mi West 4.6 mph - N/A   Mostly Cloudy
4:00 PM 48.2 °F - 42.8 °F 82% 29.44 in 6.2 mi WNW 4.6 mph - N/A   Mostly Cloudy
4:30 PM 48.2 °F - 44.6 °F 87% 29.44 in 6.2 mi Variable 2.3 mph - N/A   Mostly Cloudy
5:00 PM 48.2 °F - 44.6 °F 87% 29.42 in 6.2 mi East 5.8 mph - N/A   Mostly Cloudy
5:30 PM 48.2 °F - 44.6 °F 87% 29.42 in 6.2 mi ESE 8.1 mph - N/A Rain Light Rain
6:00 PM 46.4 °F 41.9 °F 44.6 °F 93% 29.39 in 6.2 mi ESE 9.2 mph - N/A Rain Light Rain
6:30 PM 46.4 °F 42.4 °F 44.6 °F 93% 29.39 in 6.2 mi East 8.1 mph - N/A Rain Light Rain
7:00 PM 46 °F - 45 °F 94% 29.39 in 9 mi East 8.9 mph - - Rain Light Rain
7:00 PM 46.4 °F 41.9 °F 44.6 °F 93% 29.36 in 6.2 mi East 9.2 mph - N/A Rain Light Rain
7:30 PM 46.4 °F 42.4 °F 44.6 °F 93% 29.36 in 6.2 mi East 8.1 mph - N/A Rain Light Rain
8:00 PM 46.4 °F 42.4 °F 46.4 °F 100% 29.33 in 6.2 mi East 8.1 mph - N/A Rain Light Rain
8:30 PM 46.4 °F 42.9 °F 46.4 °F 100% 29.30 in 6.2 mi ESE 6.9 mph - N/A Rain Light Rain
9:00 PM 48.2 °F - 46.4 °F 93% 29.30 in 5.6 mi ESE 6.9 mph - N/A Rain Light Rain
9:30 PM 48.2 °F - 48.2 °F 100% 29.27 in 4.3 mi SSE 8.1 mph - N/A Rain Light Rain
10:00 PM 48.2 °F - 46.4 °F 93% 29.27 in 6.2 mi South 8.1 mph - N/A Rain Light Rain
10:30 PM 48.2 °F - 44.6 °F 87% 29.24 in 6.2 mi SW 11.5 mph - N/A   Mostly Cloudy
11:00 PM 46.4 °F 41.5 °F 44.6 °F 93% 29.24 in 6.2 mi SW 10.4 mph - N/A   Mostly Cloudy
11:30 PM 46.4 °F 42.9 °F 42.8 °F 87% 29.21 in 6.2 mi SSW 6.9 mph - N/A   Scattered Clouds